Regional Weather Roundup
Issued by NWS Wakefield, VA

Home | Current Version | Previous Version | Graphics & Text | Print | Product List | Glossary On
Versions: 1 2 3 4 5 6 7 8 9 10 11 12 13 14 15 16 17 18 19 20 21 22 23 24 25 26 27 28 29 30 31 32 33 34 35 36 37 38 39 40 41 42 43 44 45 46 47 48 49 50
000
ASUS41 KAKQ 311410
RWRAKQ

REGIONAL WEATHER ROUNDUP
NATIONAL WEATHER SERVICE WAKEFIELD VA
1000 AM EDT SUN AUG 31 2014

Note: "fair" indicates few or no clouds below 12,000 feet with no
significant weather and/or obstructions to visibility. * = Denotes
station may not report precipitation (e.g., rain,snow,etc.),
thunder or fog.

VAZ042-051-052>054-056-311500-
NORTHERN VIRGINIA

CITY           SKY/WX    TMP DP  RH WIND       PRES   REMARKS
WASH NATIONAL  MOSUNNY   84  72  67 S12       30.10F
DULLES         PTSUNNY   79  73  82 S8        30.10F
FORT BELVOIR   MOSUNNY   79  73  80 VRB6      30.11F
QUANTICO       SUNNY     80  73  79 SW12      30.11F
FREDERICKSBRG* SUNNY     82  74  78 SW10      30.10F
STAFFORD*      SUNNY     80  78  91 SW5       30.15F
WARRENTON      SUNNY     82  78  86 S8        30.10F
CULPEPER*      MOSUNNY  N/A N/A N/A S7        30.11F
MANASSAS*      MOSUNNY   81  75  83 S9        30.10F
LEESBURG*      PTSUNNY   79  75  89 S6        30.10F
WINCHESTER     CLOUDY    77  72  83 SW3       30.10S
$$

VAZ048-049-060>072-079>083-311500-
CENTRAL AND SOUTH CENTRAL VIRGINIA...AND NORTH CENTRAL NORTH CAROLINA

CITY           SKY/WX    TMP DP  RH WIND       PRES   REMARKS
RICHMOND       PTSUNNY   83  72  69 SW9       30.14F
CHESTERFIELD*  MOSUNNY   81  66  61 S9        30.17S
PETERSBURG*    MOSUNNY   80  72  77 S6        30.16F
HANOVER        SUNNY     83  72  69 SW12      30.15F
TAPPAHANNOCK*  SUNNY     82  71  69 SW9       30.15F
CHARLOTTSVILLE MOSUNNY   77  72  84 S7        30.12F
ORANGE*        PTSUNNY   79  72  78 S8        30.12F
LOUISA*        SUNNY     79  72  78 S7        30.12F
FARMVILLE*     MOSUNNY   77  75  94 S10       30.12F
SOUTH HILL*    MOSUNNY   81  77  89 S7        30.22F
ROANOKE RAPIDS MOSUNNY   79  72  78 SW9       30.18S
RALEIGH        PTSUNNY   80  72  76 SW12      30.18F
$$

VAZ088>098-311500-
SOUTHEAST VIRGINIA

CITY           SKY/WX    TMP DP  RH WIND       PRES   REMARKS
NORFOLK        MOSUNNY   83  72  69 SW10      30.17F
VIRGINIA BEACH MOSUNNY   81  73  76 SW12      30.17F
NORFOLK NAVAL  PTSUNNY   83  73  72 VRB7      30.18F
WEST POINT*    SUNNY     84  71  65 S6        30.17F
NEWPORT NEWS   SUNNY     85  71  63 SW12      30.17F
LANGLEY AFB    SUNNY     82  72  72 W12       30.16F
FORT EUSTIS    SUNNY     82  71  69 VRB6      30.15F
WILLIAMSBURG*  SUNNY     84  73  70 SW6       30.17F
FRANKLIN*      SUNNY     82  73  74 SW5       30.17F
WAKEFIELD      SUNNY     82  72  71 S8        30.17F
$$

VAZ020-022-025-037-045-311500-
WESTERN AND SOUTHWEST VIRGINIA

CITY           SKY/WX    TMP DP  RH WIND       PRES   REMARKS
STAUNTON*      MOSUNNY   81  68  64 S10       30.15F
HOT SPRINGS VA LGT RAIN  68  62  80 SW10G16   30.27F
LYNCHBURG      SUNNY     78  71  79 S9        30.15F
DANVILLE       MOSUNNY   81  72  74 S9        30.14F
MARTINSVILLE   CLOUDY    78  71  79 S6        30.18S
ROANOKE        PTSUNNY   81  69  67 VRB3      30.17S
BLACKSBURG     CLOUDY    75  72  88 NW3       30.22S
DUBLIN*        PTSUNNY   75  71  87 W6        30.21S
MARION*        MOSUNNY  N/A N/A N/A CALM      30.25S
HILLSVILLE*    PTSUNNY   71  68  90 S7        30.24S
RICHLANDS*     PTSUNNY   75  68  79 S3        30.22S
WISE*          CLOUDY    70  68  94 SW3       30.24R
ABINGDON*      MOSUNNY   75  70  83 CALM      30.21F
$$

MDZ021>025-VAZ099-100-311500-
SOUTHERN MARYLAND AND THE DELMARVA PENINSULA

CITY           SKY/WX    TMP DP  RH WIND       PRES   REMARKS
PATUXENT RIVER PTSUNNY   82  72  71 SW12      30.12F
BAY BRIDGE APT   N/A     81  72  74 S10       30.10F
LEONARDTOWN    MOSUNNY   79  70  73 SW9G18    30.14F
DOVER          SUNNY     83  76  79 S15       30.11F
GEORGETOWN     MOSUNNY   83  74  74 S10       30.14F
EASTON         MOSUNNY   84  77  79 SW9G16    30.15F
CAMBRIDGE      MOSUNNY   81  72  74 S9        30.13S
SALISBURY      MOSUNNY   85  73  67 SW12      30.15F
OCEAN CITY     MOSUNNY   83  72  69 SW10      30.15F
WALLOPS ISLAND SUNNY     84  72  67 SW10      30.16F
ACCOMACK*      SUNNY     82  70  65 SW14      30.16F
$$

NCZ012>017-030>032-311500-
EASTERN NORTH CAROLINA

CITY           SKY/WX    TMP DP  RH WIND       PRES   REMARKS
ELIZABETH CITY MOSUNNY   82  72  71 SW7       30.19F
AHOSKIE*       SUNNY     79  73  81 S3        30.18F
EDENTON*       MOSUNNY   80  72  74 SW5       30.19F
CURRITUCK*     MOSUNNY   81  71  72 S3        30.20S
KILL DEVIL HLS MOSUNNY   83  72  69 SW6       30.19S
MANTEO         MOSUNNY   81  73  77 SW3       30.20F
CAPE HATTERAS  MOSUNNY   82  74  76 S5        30.20S
GOLDSBORO      PTSUNNY   82  77  83 VRB5      30.17F
WASHINGTON     MOSUNNY   81  72  75 SW5       30.20S
GREENVILLE     SUNNY     82  73  74 SW6       30.20S
NEW BERN       MOSUNNY   85  73  67 SW5       30.21S
WILMINGTON     MOSUNNY   84  75  74 VRB3      30.18F
$$

VAZ048-311500-
ELSEWHERE

CITY           SKY/WX    TMP DP  RH WIND       PRES   REMARKS
HARRISBURG PA  CLOUDY    79  72  79 SW6       30.08S
BALTIMORE      PTSUNNY   81  72  74 SW7       30.09F
ANNAPOLIS      SUNNY     82  73  74 S9        30.09F
ANDREWS AFB    MOSUNNY   82  73  75 S12       30.11F
WILMINGTON DE  MOSUNNY   81  73  76 S12       30.10F
PHILADELPHIA   PTSUNNY   80  72  76 SW9       30.10F
WILDWOOD NJ*   MOSUNNY   82  72  69 SW14      30.15S
ATLANTIC CITY  MOSUNNY   82  73  74 SW13      30.12F
HENDERSON NC   MOSUNNY   80  71  74 S10       30.18F
GREENSBORO     PTSUNNY   79  72  79 S9        30.16F
ROCKY MOUNT    MOSUNNY   82  73  74 SW9       30.19F
FAYETTEVILLE   PTSUNNY   84  75  74 S6        30.17F
CHARLOTTE      PTSUNNY   79  71  76 W5        30.18R
$$

VAZ100-311500-
MARINE

STATION/POSITION TIME  TEMP    WIND        PRES    WAVE   SWELL
                       AIR SEA DIR/SP/G            HT/PER HT/PER
                 (UTC) (F)     (DEG/KT/KT) (MB)    (FT/S) (FT/S)
44066 TX TWR #4  1400   74 72  200/ 14/ 16 1020.8F   3/ 7   2/ 7
CAPE MAY NJ      1400   78 79  200/ 11/ 14 1020.0F
LEWES DE         1400   81 75  220/  8/ 12 1020.2F
15NM E FENWICK I 1400   76 74              1021.0S   3/11
OCEAN-CITY-INLET 1400   80 76  220/ 11/ 13 1020.7F
WACHAPREAGUE VA  1400   82 79  240/  7/ 12 1021.4F
THOMAS POINT MD  1400   78 78  180/ 14/ 15 1020.3F
GOOSES REEF MD   1400   79     220/ 10/ 12 1020.5R
COVE POINT MD    1400   80     230/ 10/ 13 1020.0F
SOLOMONS ISLAND  1400      79                N/A
BISHOPS HEAD MD  1400   78 77  200/ 12/ 15 1020.3F
PINEY POINT MD   1400          230/  7/  9   N/A
POTOMAC MD       1400   79     230/ 10/ 12 1020.1F
CAMBRIDGE MD     1400   81 78  200/  8/ 13 1019.8F
LEWISETTA VA     1400   80 79  230/  9/ 12 1020.1F
RAPPAHANNOCK LGT 1400          200/ 13/ 14 1021.8F
STINGRAY PT      1400   79     220/ 10/ 12   N/A
YORK RVR RNG VA  1400   81     240/ 11/ 13 1020.9F
YORKTOWN VA      1400   80 80  240/ 10/ 12 1021.0F
JAMESTOWN VA     1400   78     240/  8/ 10   N/A
DOMINION TERM VA 1400   78     230/ 10/ 11 1021.7F
KIPTOPEKE VA     1400      81  210/  8/ 10   N/A
CHES BAY BRIDGE  1400   79 78  200/  8/ 10 1021.2F
CAPE HENRY VA    1400   80     200/  7/ 11 1020.6F
CHESAPEAKE LGHT  1300   77     220/ 10/ 11 1023.1S
WILLOUBY STN VA  1400   79     230/ 11/ 11 1020.4F
S CRANEY ISL VA  1400          230/  7/ 10 1021.4F
CAPE HENRY BUOY  1400      78                N/A     3/10
1ST LANDING BUOY 1400   78     210/  8/  8 1021.5F
CAPE CHARLES BUO 1400      77                N/A     2/10   2/10
OFFSHORE WE BUOY 1400      76                N/A     3/10   3/10
64NM E OF VA BCH 1400   77 77  210/  6/  8 1022.2S   3/ 9   2/ 9
DUCK PIER NC     1400   80 76  210/  7/  9 1021.8F
44056 DUCK FRF   1400                        N/A     2/ 9
OREGON INLET NC  1400   80 80  230/  4/  4 1022.6F
HATTERAS NC      1400   83 82  270/  1/  4 1023.1S
DIAMOND SHLS NC  1400   81     180/  6/  8 1022.6F   3/ 9   3/ 9
CAPE LOOKOUT NC  1300   81     160/  4/  5 1022.3F
$$


USA.gov is the U.S. government's official web portal to all federal, state and local government web resources and services.